Flag for Australia Weather past 2 weeks in Sydney, New South Wales, Australia

Now
73 °F

Scattered clouds.


Feels Like: 76 °F
Forecast: 65 / 75 °F
Wind: 15 mph from Northeast

Location: Sydney Airport

Current Time: Mar 29, 2015 at 6:49:09 PM

Latest Report: Mar 29, 2015 at 6:00 PM


Visibility: N/A

Pressure: 30.12 "Hg

Humidity: 61%

Dew point: 59 °F

Location of SydneyLocation

Historic Weather in Sydney — Graph

°F

Sydney temperature yesterday

Maximum temperature yesterday: 72 °F (at 1:30 PM)
Minimum temperature yesterday: 59 °F (at 5:30 AM)
Average temperature yesterday: 66 °F

Past Weeks' High & Low Weather Summary

 TemperatureHumidityPressure
High86 °F (Mar 18, 12:30 PM)100% (Mar 24, 7:30 PM)30.30 "Hg (Mar 24, 7:30 PM)
Low57 °F (Mar 27, 7:00 AM)18% (Mar 27, 4:00 PM)29.59 "Hg (Mar 18, 4:00 PM)
Average71 °F64%29.99 "Hg
* Reported Mar 14 5:00 PM — Mar 29 5:00 PM, Sydney, Weather by CustomWeather, © 2015

Note: Actual official high and low records may vary slightly from our data, if they occured in-between our weather recording intervals... More about our weather records

Advertising

Sydney weather history for previous 24 hours

 ConditionsComfort  
Time TempWeatherWind HumidityBarometerVisibility
5:00 PM
Sun, Mar 29
75 °FPartly sunny.15 mph57%30.12 "HgN/A
4:30 PM75 °FBroken clouds.16 mph57%30.12 "HgN/A
4:00 PM75 °FPartly sunny.16 mph57%30.12 "HgN/A
3:30 PM77 °FPartly sunny.16 mph54%30.12 "HgN/A
3:00 PM77 °FPartly sunny.15 mph51%30.15 "HgN/A
2:30 PM79 °FScattered clouds.13 mph48%30.12 "HgN/A
2:00 PM79 °FPassing clouds.14 mph48%30.15 "HgN/A
1:30 PM75 °FPassing clouds.10 mph50%30.15 "HgN/A
1:00 PM75 °FScattered clouds.8 mph50%30.18 "HgN/A
12:30 PM75 °FScattered clouds.9 mph50%30.18 "HgN/A
12:00 PM77 °FScattered clouds.8 mph47%30.21 "HgN/A
11:30 AM73 °FScattered clouds.6 mph53%30.21 "HgN/A
11:00 AM72 °FScattered clouds.6 mph57%30.21 "HgN/A
10:30 AM70 °FScattered clouds.8 mph57%30.21 "HgN/A
10:00 AM68 °FPartly sunny.7 mph60%30.21 "HgN/A
9:30 AM66 °FBroken clouds.7 mph64%30.21 "HgN/A
9:00 AM64 °FBroken clouds.8 mph68%30.21 "HgN/A
8:30 AM63 °FBroken clouds.6 mph73%30.21 "HgN/A
8:00 AM61 °FBroken clouds.7 mph77%30.21 "HgN/A
7:30 AM63 °FBroken clouds.6 mph68%30.21 "HgN/A
7:00 AM61 °FPassing clouds.7 mph72%30.18 "HgN/A
6:30 AM61 °FPassing clouds.6 mph72%30.18 "HgN/A
6:00 AM61 °FPassing clouds.6 mph77%30.18 "HgN/A
5:00 AM61 °FClear.7 mph77%30.18 "Hg10 mi
4:00 AM61 °FClear.6 mph77%30.18 "Hg10 mi
3:30 AM61 °FPassing clouds.7 mph77%30.18 "HgN/A
3:00 AM63 °FPassing clouds.5 mph73%30.18 "HgN/A
2:30 AM63 °FPassing clouds.6 mph73%30.18 "HgN/A
2:00 AM63 °FPassing clouds.7 mph73%30.18 "HgN/A
1:00 AM64 °FPassing clouds.No wind68%30.21 "HgN/A
12:30 AM66 °FPassing clouds.No wind64%30.21 "HgN/A
12:00 AM66 °FPassing clouds.5 mph64%30.21 "HgN/A
11:30 PM
Sat, Mar 28
66 °FPassing clouds.3 mph60%30.21 "HgN/A
11:00 PM66 °FPassing clouds.6 mph60%30.21 "HgN/A
10:30 PM66 °FPassing clouds.6 mph60%30.21 "HgN/A
10:00 PM66 °FPassing clouds.7 mph60%30.21 "HgN/A
9:30 PM66 °FPassing clouds.9 mph60%30.21 "HgN/A
9:00 PM66 °FPassing clouds.9 mph60%30.21 "HgN/A
8:30 PM66 °FPassing clouds.10 mph60%30.21 "HgN/A
8:00 PM68 °FPassing clouds.10 mph56%30.18 "HgN/A
7:30 PM66 °FPassing clouds.12 mph60%30.18 "HgN/A
7:00 PM68 °FPassing clouds.12 mph56%30.18 "HgN/A
6:30 PM68 °FPassing clouds.10 mph56%30.18 "HgN/A
6:00 PM70 °FPassing clouds.12 mph53%30.18 "HgN/A
Weather by CustomWeather, © 2015

See weather overviewHow to use our weather pages